Location: Natural Bridges National Monument
(37.6093°N, 109.9767°W)
Time: 09:33:42
(UTC-07:00)

Cosmos 1727 Rocket - Visible Passes

Search period start: 03 March 2015 00:00
Search period end: 13 March 2015 01:00
Orbit: 960 x 998 km, 82.9° (Epoch: 01 March)

Date Brightness Start Highest point End Pass type
(mag) Time Alt. Az. Time Alt. Az. Time Alt. Az.
07 Mar 6.2 21:29:10 14° N 21:29:10 14° N 21:29:53 10° N visible
08 Mar 6.1 22:54:39 18° N 22:54:39 18° N 22:56:07 10° N visible
09 Mar 5.7 21:35:20 18° NNE 21:35:20 18° NNE 21:36:53 10° NNE visible
09 Mar 6.2 23:19:59 18° NNW 23:19:59 18° NNW 23:21:53 10° NNW visible
10 Mar 5.1 22:00:30 32° NNE 22:00:30 32° NNE 22:03:36 10° N visible
10 Mar 6.6 23:45:09 13° NW 23:45:09 13° NW 23:46:43 10° NW visible
11 Mar 5.5 20:40:48 16° ENE 20:40:48 16° ENE 20:43:01 10° NE visible
11 Mar 4.8 22:25:25 45° NNW 22:25:25 45° NNW 22:29:54 10° N visible
12 Mar 4.5 21:05:18 35° E 21:05:18 35° E 21:10:31 10° NNE visible
12 Mar 5.5 22:49:52 30° W 22:50:28 30° WNW 22:55:46 10° NNW visible
